2023/02/08 00:00:00,29.1, 0.9
2023/02/08 00:10:00,29.1, 1.0
2023/02/08 00:20:00,29.0, 1.1
2023/02/08 00:30:00,29.0, 0.8
2023/02/08 00:40:00,29.0, 0.7
2023/02/08 00:50:00,29.0, 0.7
2023/02/08 01:00:00,28.9, 0.2
2023/02/08 01:10:00,28.8, 0.7
2023/02/08 01:20:00,28.8, 0.3
2023/02/08 01:30:00,28.9, 0.3
2023/02/08 01:40:00,28.9,-0.1
2023/02/08 01:50:00,28.9, 0.1
2023/02/08 02:00:00,29.1, 0.4
2023/02/08 02:10:00,29.0, 0.2
2023/02/08 02:20:00,28.9, 0.1
2023/02/08 02:30:00,28.8, 0.1
2023/02/08 02:40:00,28.9, 0.4
2023/02/08 02:50:00,28.8,-0.1
2023/02/08 03:00:00,28.8,-0.3
2023/02/08 03:10:00,28.8,-0.4
2023/02/08 03:20:00,28.8,-0.3
2023/02/08 03:30:00,28.7, 0.1
2023/02/08 03:40:00,28.6,-0.3
2023/02/08 03:50:00,28.5, 0.1
2023/02/08 04:00:00,28.4, 0.4
2023/02/08 04:10:00,28.1, 0.8
2023/02/08 04:20:00,28.0, 1.1
2023/02/08 04:30:00,27.9, 1.5
2023/02/08 04:40:00,27.7, 1.3
2023/02/08 04:50:00,27.5, 1.4
2023/02/08 05:00:00,27.5, 1.4
2023/02/08 05:10:00,27.4, 1.7
2023/02/08 05:20:00,27.1, 1.6
2023/02/08 05:30:00,27.4, 1.8
2023/02/08 05:40:00,27.2, 1.8
2023/02/08 05:50:00,26.9, 1.7
2023/02/08 06:00:00,26.8, 1.9
2023/02/08 06:10:00,26.9, 1.6
2023/02/08 06:20:00,27.3, 1.8
2023/02/08 06:30:00,27.4, 1.4
2023/02/08 06:40:00,27.9, 1.5
2023/02/08 06:50:00,27.7, 1.0
2023/02/08 07:00:00,27.3, 1.4
2023/02/08 07:10:00,26.7, 1.3
2023/02/08 07:20:00,26.6, 1.8
2023/02/08 07:30:00,26.9, 1.6
2023/02/08 07:40:00,26.4, 2.3
2023/02/08 07:50:00,26.2, 2.2
2023/02/08 08:00:00,26.7, 2.0
2023/02/08 08:10:00,26.0, 2.0
2023/02/08 08:20:00,25.7, 1.6
2023/02/08 08:30:00,25.5, 1.5
2023/02/08 08:40:00,25.7, 1.9
2023/02/08 08:50:00,---, 2.3
2023/02/08 09:00:00, 0.0, 3.1
2023/02/08 09:10:00, 0.0, 3.8
2023/02/08 09:20:00, 0.0, 4.7
2023/02/08 09:30:00,---, 5.0
2023/02/08 09:40:00, 0.0, 4.3
2023/02/08 09:50:00,26.4, 4.1
2023/02/08 10:00:00,27.2, 4.5
2023/02/08 10:10:00,28.6, 6.2
2023/02/08 10:20:00,30.1, 7.1
2023/02/08 10:30:00,30.3, 7.1
2023/02/08 10:40:00,29.3, 5.6
2023/02/08 10:50:00,29.3, 6.4
2023/02/08 11:00:00,29.5, 6.7
2023/02/08 11:10:00,29.1, 5.7
2023/02/08 11:20:00,28.8, 5.4
2023/02/08 11:30:00,28.6, 5.6
2023/02/08 11:40:00,29.0, 6.4
2023/02/08 11:50:00,29.1, 7.2
2023/02/08 12:00:00,29.4, 7.6
2023/02/08 12:10:00,29.3, 6.7
2023/02/08 12:20:00,29.3, 6.6
2023/02/08 12:30:00,28.9, 7.1
2023/02/08 12:40:00,29.5, 6.6
2023/02/08 12:50:00,28.7, 6.6
2023/02/08 13:00:00,28.8, 7.4
2023/02/08 13:10:00,28.9, 7.4
2023/02/08 13:20:00, 6.2, 7.3
2023/02/08 13:30:00, 1.1, 9.1
2023/02/08 13:40:00, 6.6, 9.2
2023/02/08 13:50:00,29.1, 9.0
2023/02/08 14:00:00,29.0, 9.6
2023/02/08 14:10:00,28.6, 8.8
2023/02/08 14:20:00,28.7, 7.9
2023/02/08 14:30:00,28.6, 8.6
2023/02/08 14:40:00,27.9, 8.5
2023/02/08 14:50:00,28.8, 9.7
2023/02/08 15:00:00,27.5, 8.6
2023/02/08 15:10:00,27.6, 9.7
2023/02/08 15:20:00,28.2,13.2
2023/02/08 15:30:00,27.9,10.2
2023/02/08 15:40:00,27.2, 7.8
2023/02/08 15:50:00,26.5, 5.9
2023/02/08 16:00:00,26.4, 5.1
2023/02/08 16:10:00,26.4, 5.4
2023/02/08 16:20:00,26.7, 8.4
2023/02/08 16:30:00,26.4, 6.3
2023/02/08 16:40:00,26.1, 5.3
2023/02/08 16:50:00,26.0, 5.1
2023/02/08 17:00:00,25.7, 4.0
2023/02/08 17:10:00,25.6, 4.1
2023/02/08 17:20:00,25.4, 4.1
2023/02/08 17:30:00,25.3, 3.5
2023/02/08 17:40:00,25.2, 2.7
2023/02/08 17:50:00,25.1, 2.3
2023/02/08 18:00:00,25.0, 2.3
2023/02/08 18:10:00,25.0, 2.4
2023/02/08 18:20:00,25.2, 2.4
2023/02/08 18:30:00,25.1, 2.4
2023/02/08 18:40:00,25.0, 2.2
2023/02/08 18:50:00,24.7, 2.1
2023/02/08 19:00:00,24.5, 1.6
2023/02/08 19:10:00,24.7, 1.4
2023/02/08 19:20:00,24.7, 1.2
2023/02/08 19:30:00,24.8, 1.3
2023/02/08 19:40:00,24.8, 1.2
2023/02/08 19:50:00,24.7, 1.0
2023/02/08 20:00:00,24.6, 1.2
2023/02/08 20:10:00,24.4, 1.4
2023/02/08 20:20:00,24.4, 1.4
2023/02/08 20:30:00,24.5, 1.4
2023/02/08 20:40:00,24.6, 1.4
2023/02/08 20:50:00,24.4, 1.6
2023/02/08 21:00:00,24.3, 1.4
2023/02/08 21:10:00,24.4, 1.3
2023/02/08 21:20:00,24.6, 1.2
2023/02/08 21:30:00,24.7, 1.1
2023/02/08 21:40:00,25.1, 1.1
2023/02/08 21:50:00,25.0, 1.3
2023/02/08 22:00:00,25.1, 0.9
2023/02/08 22:10:00,25.2, 0.8
2023/02/08 22:20:00,25.1, 1.1
2023/02/08 22:30:00,24.8, 0.9
2023/02/08 22:40:00,24.5, 0.8
2023/02/08 22:50:00,24.3, 0.7
2023/02/08 23:00:00,24.5, 0.7
2023/02/08 23:10:00,24.4, 0.9
2023/02/08 23:20:00,24.0, 1.0
2023/02/08 23:30:00,23.5, 1.1
2023/02/08 23:40:00,23.4, 1.0
2023/02/08 23:50:00,24.2, 0.9
